Flag for Germany Weather past 2 weeks in Prenzlau, Brandenburg, Germany

Now
79 °F

Sunny.


Feels Like: 79 °F
Forecast: 61 / 73 °F
Wind: 9 mph from East

Location: Szczecin Airport

Current Time: Jul 24, 2014 at 1:23:18 PM

Latest Report: Jul 24, 2014 at 1:00 PM


Visibility: 10 mi

Pressure: 30.04 "Hg

Humidity: 39%

Dew point: 52 °F

Location of PrenzlauLocation

Historic Weather in Prenzlau — Graph

°F

Prenzlau temperature yesterday

Maximum temperature yesterday: 82 °F (at 12:30 PM)
Minimum temperature yesterday: 61 °F (at 2:30 AM)
Average temperature yesterday: 71 °F

Past Weeks' High & Low Weather Summary

 TemperatureHumidityPressure
High88 °F (Jul 20, 4:00 PM)100% (Jul 13, 4:30 AM)30.18 "Hg (Jul 13, 4:30 AM)
Low54 °F (Jul 12, 4:30 AM)31% (Jul 10, 5:00 PM)29.65 "Hg (Jul 9, 12:00 PM)
Average69 °F69%29.95 "Hg
* Reported Jul 9 12:00 Noon — Jul 24 12:00 Noon, Prenzlau, Weather by CustomWeather, © 2014

Note: Actual official high and low records may vary slightly from our data, if they occured in-between our weather recording intervals... More about our weather records

Advertising

Prenzlau weather history for previous 24 hours

 ConditionsComfort  
Time TempWeatherWind HumidityBarometerVisibility
12:00 PM
Jul 24
79 °FSunny.10 mph42%30.04 "Hg10 mi
11:30 AM77 °FSunny.10 mph47%30.04 "Hg10 mi
11:00 AM77 °FSunny.9 mph47%30.04 "Hg10 mi
10:30 AM77 °FSunny.12 mph47%30.04 "Hg10 mi
10:00 AM75 °FSunny.9 mph54%30.04 "Hg10 mi
9:30 AM72 °FSunny.8 mph65%30.04 "Hg10 mi
9:00 AM70 °FSunny.6 mph69%30.04 "Hg10 mi
8:30 AM68 °FPassing clouds.7 mph73%30.04 "HgN/A
7:30 AM64 °FSunny.7 mph83%30.04 "Hg10 mi
7:00 AM63 °FSunny.8 mph88%30.04 "Hg10 mi
6:30 AM61 °FSunny.8 mph88%30.04 "Hg10 mi
6:00 AM61 °FClear.7 mph88%30.04 "Hg10 mi
5:30 AM61 °FClear.8 mph88%30.04 "Hg10 mi
5:00 AM61 °FClear.5 mph88%30.04 "Hg10 mi
4:30 AM63 °FClear.3 mph83%30.07 "Hg10 mi
4:00 AM63 °FClear.6 mph83%30.07 "Hg10 mi
3:00 AM61 °FClear.5 mph83%30.07 "Hg10 mi
2:30 AM61 °FClear.5 mph83%30.07 "Hg10 mi
2:00 AM61 °FClear.3 mph83%30.07 "Hg10 mi
1:30 AM63 °FClear.5 mph77%30.07 "Hg10 mi
1:00 AM64 °FClear.6 mph73%30.07 "Hg10 mi
12:30 AM64 °FClear.5 mph73%30.09 "Hg10 mi
12:00 AM64 °FClear.6 mph73%30.09 "Hg10 mi
11:30 PM
Jul 23
64 °FClear.6 mph78%30.09 "Hg10 mi
11:00 PM64 °FSprinkles. Passing clouds.7 mph78%30.09 "HgN/A
10:30 PM68 °FClear.8 mph60%30.09 "Hg10 mi
10:00 PM68 °FSunny.7 mph60%30.07 "Hg10 mi
9:00 PM70 °FPassing clouds.7 mph53%30.07 "HgN/A
8:30 PM72 °FPassing clouds.9 mph50%30.07 "HgN/A
8:00 PM73 °FPassing clouds.10 mph47%30.07 "HgN/A
7:30 PM75 °FPassing clouds.9 mph50%30.07 "HgN/A
7:00 PM75 °FSunny.10 mph47%30.07 "Hg10 mi
6:30 PM77 °FPassing clouds.10 mph44%30.07 "HgN/A
6:00 PM77 °FPassing clouds.15 mph42%30.04 "HgN/A
5:30 PM79 °FPassing clouds.13 mph42%30.04 "HgN/A
5:00 PM79 °FPassing clouds.14 mph45%30.04 "HgN/A
4:30 PM79 °FPassing clouds.13 mph45%30.07 "HgN/A
4:00 PM79 °FPassing clouds.14 mph45%30.07 "HgN/A
3:30 PM79 °FPassing clouds.13 mph42%30.07 "HgN/A
3:00 PM79 °FPassing clouds.13 mph45%30.07 "HgN/A
2:00 PM81 °FPassing clouds.14 mph45%30.07 "HgN/A
1:30 PM81 °FPassing clouds.14 mph39%30.09 "HgN/A
1:00 PM79 °FPassing clouds.13 mph45%30.09 "HgN/A
Weather by CustomWeather, © 2014

See weather overviewHow to use our weather pages